NDF430A EDDH-LTAI

Flight info

Callsign NDF430A
Flight time 3h 18m
Altitude 39000
Route AMLUH2C/05 AMLUH M852 DENIX DCT ZUCKA DCT EKPEK DCT OMELO DCT VLM DCT NAVTI DCT BEGLA DCT KEROP DCT ESIRI DCT OBLAK DCT NISVA DCT OTKOK N131 RODIP DCT BELGI UN131 KULAR UT39 NESIL NESIL1U
Aircraft A339/H-SADE1E2E3GHIJ3J5M1P2RWXY/LB2D1

Departure

Time 2026-05-07 10:59
Airport Hamburg Helmut Schmidt Airport (EDDH)

Arrival

Time 2026-05-07 14:17
Airport Antalya International Airport (LTAI)
Time Latitude Longitude Altitude Speed Heading
2026-05-07 10:17 53.62946 10.00278 54 ft 0 kts 123°
2026-05-07 10:47 53.62946 10.00277 54 ft 1 kts 123°
2026-05-07 10:47 53.62960 10.00244 46 ft 4 kts 132°
2026-05-07 10:47 53.62978 10.00211 46 ft 4 kts 146°
2026-05-07 10:48 53.63000 10.00189 46 ft 4 kts 167°
2026-05-07 10:48 53.63024 10.00182 49 ft 4 kts 198°
2026-05-07 10:48 53.63036 10.00188 46 ft 0 kts 212°
2026-05-07 10:52 53.63031 10.00182 46 ft 6 kts 213°
2026-05-07 10:52 53.62975 10.00124 46 ft 10 kts 212°
2026-05-07 10:52 53.62914 10.00059 51 ft 11 kts 212°
2026-05-07 10:52 53.62846 10.00013 53 ft 11 kts 210°
2026-05-07 10:53 53.62778 9.99936 47 ft 13 kts 213°
2026-05-07 10:53 53.62692 9.99858 50 ft 14 kts 208°
2026-05-07 10:53 53.62636 9.99736 48 ft 13 kts 255°
2026-05-07 10:53 53.62619 9.99589 49 ft 13 kts 260°
2026-05-07 10:54 53.62598 9.99388 51 ft 26 kts 259°
2026-05-07 10:54 53.62563 9.99061 48 ft 29 kts 259°
2026-05-07 10:54 53.62526 9.98738 49 ft 27 kts 260°
2026-05-07 10:54 53.62488 9.98430 49 ft 26 kts 255°
2026-05-07 10:55 53.62445 9.98138 48 ft 25 kts 250°
2026-05-07 10:55 53.62344 9.97925 51 ft 22 kts 225°
2026-05-07 10:55 53.62253 9.97722 50 ft 22 kts 232°
2026-05-07 10:55 53.62156 9.97528 47 ft 22 kts 233°
2026-05-07 10:56 53.62060 9.97343 49 ft 21 kts 231°
2026-05-07 10:56 53.61970 9.97152 51 ft 21 kts 231°
2026-05-07 10:56 53.61879 9.96961 53 ft 21 kts 231°
2026-05-07 10:56 53.61784 9.96778 52 ft 21 kts 226°
2026-05-07 10:57 53.61691 9.96596 49 ft 20 kts 238°
2026-05-07 10:57 53.61710 9.96423 50 ft 16 kts 326°
2026-05-07 10:57 53.61815 9.96417 49 ft 16 kts
2026-05-07 10:57 53.61883 9.96484 49 ft 0 kts 51°
2026-05-07 10:58 53.61886 9.96491 46 ft 12 kts 51°
2026-05-07 10:58 53.62138 9.97012 46 ft 102 kts 51°
2026-05-07 10:58 53.62758 9.98252 47 ft 171 kts 50°
2026-05-07 10:58 53.63577 9.99887 628 ft 186 kts 49°
2026-05-07 10:59 53.64458 10.01554 1354 ft 198 kts 47°
2026-05-07 10:59 53.65391 10.03337 2126 ft 207 kts 48°
2026-05-07 10:59 53.66301 10.05297 2847 ft 217 kts 46°
2026-05-07 10:59 53.67231 10.07364 3598 ft 225 kts 50°
2026-05-07 11:00 53.68122 10.09524 4356 ft 230 kts 58°
2026-05-07 11:00 53.68804 10.11989 5030 ft 239 kts 80°
2026-05-07 11:00 53.68492 10.14707 5645 ft 242 kts 120°
2026-05-07 11:00 53.67246 10.16494 6395 ft 238 kts 158°
2026-05-07 11:01 53.65691 10.17331 7138 ft 234 kts 162°
2026-05-07 11:01 53.64117 10.18213 7566 ft 247 kts 163°
2026-05-07 11:01 53.62409 10.19110 7769 ft 265 kts 163°
2026-05-07 11:01 53.60589 10.20066 8048 ft 281 kts 163°
2026-05-07 11:02 53.58714 10.21067 8728 ft 283 kts 163°
2026-05-07 11:02 53.56825 10.22091 9401 ft 286 kts 162°
2026-05-07 11:02 53.54922 10.23131 10073 ft 289 kts 162°
2026-05-07 11:02 53.52968 10.24202 10402 ft 305 kts 162°
2026-05-07 11:03 53.50883 10.25339 10598 ft 325 kts 162°
2026-05-07 11:03 53.48681 10.26536 10882 ft 338 kts 162°
2026-05-07 11:03 53.46431 10.27750 11483 ft 341 kts 162°
2026-05-07 11:03 53.44156 10.28969 12073 ft 344 kts 162°
2026-05-07 11:04 53.41864 10.30197 12646 ft 347 kts 162°
2026-05-07 11:04 53.39551 10.31434 13237 ft 350 kts 162°
2026-05-07 11:04 53.37224 10.32681 13780 ft 353 kts 162°
2026-05-07 11:04 53.34876 10.33957 14325 ft 356 kts 160°
2026-05-07 11:05 53.32730 10.36027 14842 ft 359 kts 141°
2026-05-07 11:05 53.30902 10.38902 15369 ft 362 kts 134°
2026-05-07 11:05 53.29172 10.41990 15886 ft 365 kts 133°
2026-05-07 11:05 53.27424 10.45093 16402 ft 368 kts 134°
2026-05-07 11:06 53.25622 10.48157 16908 ft 371 kts 135°
2026-05-07 11:06 53.23765 10.51177 17395 ft 374 kts 136°
2026-05-07 11:06 53.21872 10.54168 17879 ft 377 kts 137°
2026-05-07 11:06 53.19951 10.57167 18363 ft 379 kts 137°
2026-05-07 11:07 53.18039 10.60140 18848 ft 382 kts 137°
2026-05-07 11:07 53.16087 10.63171 19309 ft 385 kts 137°
2026-05-07 11:07 53.14123 10.66224 19785 ft 388 kts 137°
2026-05-07 11:07 53.12145 10.69299 20255 ft 390 kts 137°
2026-05-07 11:08 53.10154 10.72394 20707 ft 393 kts 137°
2026-05-07 11:08 53.08148 10.75510 21155 ft 396 kts 137°
2026-05-07 11:08 53.06126 10.78645 21632 ft 399 kts 137°
2026-05-07 11:08 53.04090 10.81799 22075 ft 401 kts 137°
2026-05-07 11:09 53.02040 10.84973 22517 ft 404 kts 137°
2026-05-07 11:09 52.99975 10.88165 22950 ft 407 kts 137°
2026-05-07 11:09 52.97897 10.91374 23383 ft 410 kts 137°
2026-05-07 11:09 52.95804 10.94602 23818 ft 412 kts 137°
2026-05-07 11:10 52.93697 10.97848 24246 ft 415 kts 137°
2026-05-07 11:10 52.91578 11.01108 24666 ft 417 kts 137°
2026-05-07 11:10 52.89441 11.04390 25071 ft 420 kts 137°
2026-05-07 11:10 52.87293 11.07685 25473 ft 422 kts 137°
2026-05-07 11:11 52.85130 11.10997 25863 ft 425 kts 137°
2026-05-07 11:11 52.82954 11.14326 26250 ft 428 kts 137°
2026-05-07 11:11 52.80761 11.17675 26630 ft 430 kts 137°
2026-05-07 11:11 52.78556 11.21038 26999 ft 433 kts 138°
2026-05-07 11:12 52.76336 11.24417 27357 ft 435 kts 138°
2026-05-07 11:12 52.74103 11.27814 27709 ft 438 kts 138°
2026-05-07 11:12 52.71855 11.31227 28055 ft 440 kts 138°
2026-05-07 11:12 52.69595 11.34654 28397 ft 442 kts 138°
2026-05-07 11:13 52.67326 11.38089 28728 ft 444 kts 138°
2026-05-07 11:13 52.65040 11.41546 29037 ft 447 kts 138°
2026-05-07 11:13 52.62774 11.44964 29358 ft 449 kts 138°
2026-05-07 11:13 52.60466 11.48441 29658 ft 451 kts 138°
2026-05-07 11:14 52.58147 11.51929 29963 ft 453 kts 138°
2026-05-07 11:14 52.55813 11.55436 30266 ft 456 kts 138°
2026-05-07 11:14 52.53460 11.58965 30569 ft 458 kts 138°
2026-05-07 11:14 52.51099 11.62500 30875 ft 460 kts 138°
2026-05-07 11:15 52.48728 11.66043 31179 ft 462 kts 138°
2026-05-07 11:15 52.46344 11.69604 31480 ft 464 kts 138°
2026-05-07 11:15 52.43950 11.73175 31782 ft 466 kts 138°
2026-05-07 11:15 52.41541 11.76763 32072 ft 468 kts 138°
2026-05-07 11:16 52.39126 11.80354 32334 ft 470 kts 138°
2026-05-07 11:16 52.37521 11.82737 32510 ft 471 kts 138°
2026-05-07 11:16 52.34291 11.87526 32809 ft 474 kts 138°
2026-05-07 11:16 52.31842 11.91147 33012 ft 475 kts 138°
2026-05-07 11:17 52.29388 11.94770 33194 ft 477 kts 138°
2026-05-07 11:17 52.26924 11.98398 33346 ft 478 kts 138°
2026-05-07 11:17 52.24452 12.02038 33501 ft 479 kts 138°
2026-05-07 11:17 52.21980 12.05674 33693 ft 479 kts 138°
2026-05-07 11:18 52.20304 12.08135 33815 ft 479 kts 139°
2026-05-07 11:18 52.17828 12.11767 34005 ft 478 kts 139°
2026-05-07 11:18 52.15389 12.15340 34198 ft 478 kts 139°
2026-05-07 11:18 52.12914 12.18956 34380 ft 478 kts 139°
2026-05-07 11:19 52.10445 12.22560 34578 ft 477 kts 139°
2026-05-07 11:19 52.07974 12.26161 34754 ft 477 kts 139°
2026-05-07 11:19 52.05503 12.29755 34934 ft 476 kts 139°
2026-05-07 11:19 52.03028 12.33348 35111 ft 476 kts 139°
2026-05-07 11:20 52.00561 12.36925 35293 ft 476 kts 139°
2026-05-07 11:20 51.98060 12.40544 35464 ft 475 kts 139°
2026-05-07 11:20 51.95626 12.44063 35646 ft 475 kts 139°
2026-05-07 11:20 51.93159 12.47623 35798 ft 475 kts 139°
2026-05-07 11:21 51.90695 12.51175 35964 ft 474 kts 139°
2026-05-07 11:21 51.88227 12.54724 36124 ft 474 kts 139°
2026-05-07 11:21 51.85761 12.58260 36294 ft 473 kts 139°
2026-05-07 11:21 51.83292 12.61792 36433 ft 473 kts 139°
2026-05-07 11:22 51.80824 12.65319 36573 ft 474 kts 139°
2026-05-07 11:22 51.78356 12.68840 36705 ft 474 kts 139°
2026-05-07 11:22 51.75886 12.72354 36841 ft 474 kts 139°
2026-05-07 11:22 51.73413 12.75869 36965 ft 474 kts 140°
2026-05-07 11:23 51.68467 12.82882 37001 ft 473 kts 140°
2026-05-07 11:23 51.63527 12.89870 37000 ft 473 kts 140°
2026-05-07 11:24 51.58579 12.96856 37000 ft 473 kts 140°
2026-05-07 11:24 51.53631 13.03823 37001 ft 473 kts 140°
2026-05-07 11:25 51.48679 13.10775 37000 ft 473 kts 140°
2026-05-07 11:25 51.43724 13.17713 37000 ft 473 kts 140°
2026-05-07 11:26 51.38760 13.24644 36999 ft 473 kts 140°
2026-05-07 11:26 51.34264 13.30903 36999 ft 473 kts 140°
2026-05-07 11:27 51.29261 13.37850 37000 ft 473 kts 140°
2026-05-07 11:27 51.24322 13.44690 37001 ft 473 kts 140°
2026-05-07 11:28 51.19342 13.51568 37000 ft 474 kts 140°
2026-05-07 11:28 51.14358 13.58431 37000 ft 474 kts 140°
2026-05-07 11:29 51.09340 13.65317 37000 ft 478 kts 140°
2026-05-07 11:29 51.04282 13.72240 37001 ft 481 kts 140°
2026-05-07 11:30 50.99199 13.79178 37001 ft 482 kts 141°
2026-05-07 11:30 50.94095 13.86124 37000 ft 483 kts 141°
2026-05-07 11:31 50.88982 13.93066 37000 ft 484 kts 141°
2026-05-07 11:31 50.83777 13.99839 37001 ft 485 kts 145°
2026-05-07 11:32 50.75176 14.08330 37000 ft 486 kts 151°
2026-05-07 11:33 50.69363 14.13790 37000 ft 486 kts 150°
2026-05-07 11:33 50.63614 14.19289 37001 ft 486 kts 149°
2026-05-07 11:34 50.57839 14.24841 36999 ft 487 kts 149°
2026-05-07 11:34 50.52056 14.30385 37001 ft 486 kts 149°
2026-05-07 11:35 50.46274 14.35907 37000 ft 486 kts 149°
2026-05-07 11:35 50.40493 14.41408 37000 ft 486 kts 149°
2026-05-07 11:36 50.34711 14.46887 37000 ft 486 kts 149°
2026-05-07 11:36 50.28924 14.52350 37000 ft 486 kts 149°
2026-05-07 11:37 50.23137 14.57797 36998 ft 482 kts 149°
2026-05-07 11:37 50.17480 14.63106 37000 ft 471 kts 149°
2026-05-07 11:38 50.11836 14.68386 37000 ft 474 kts 150°
2026-05-07 11:38 50.06179 14.73663 37000 ft 474 kts 150°
2026-05-07 11:39 50.00519 14.78927 37000 ft 475 kts 150°
2026-05-07 11:39 49.94845 14.84188 37000 ft 475 kts 150°
2026-05-07 11:40 49.89170 14.89435 37000 ft 475 kts 150°
2026-05-07 11:40 49.83500 14.94664 37000 ft 474 kts 150°
2026-05-07 11:41 49.77815 14.99890 37000 ft 475 kts 150°
2026-05-07 11:41 49.72141 15.05097 37000 ft 474 kts 149°
2026-05-07 11:42 49.66748 15.10984 37001 ft 475 kts 142°
2026-05-07 11:42 49.61612 15.17415 37000 ft 476 kts 141°
2026-05-07 11:43 49.56518 15.23812 37000 ft 475 kts 141°
2026-05-07 11:43 49.51376 15.30213 37000 ft 476 kts 141°
2026-05-07 11:44 49.46219 15.36595 37000 ft 476 kts 141°
2026-05-07 11:44 49.41050 15.42969 37001 ft 477 kts 141°
2026-05-07 11:45 49.35877 15.49326 37000 ft 476 kts 141°
2026-05-07 11:45 49.30690 15.55682 37000 ft 476 kts 141°
2026-05-07 11:46 49.25512 15.62008 37000 ft 476 kts 141°
2026-05-07 11:46 49.20325 15.68325 37000 ft 476 kts 141°
2026-05-07 11:47 49.15164 15.74592 37000 ft 476 kts 141°
2026-05-07 11:47 49.09978 15.80872 37000 ft 476 kts 141°
2026-05-07 11:48 49.04793 15.87133 37000 ft 475 kts 142°
2026-05-07 11:48 48.99609 15.93376 37000 ft 475 kts 142°
2026-05-07 11:49 48.94421 15.99605 37000 ft 474 kts 142°
2026-05-07 11:49 48.89232 16.05820 37000 ft 474 kts 142°
2026-05-07 11:50 48.84048 16.12011 37000 ft 474 kts 142°
2026-05-07 11:50 48.78862 16.18187 37000 ft 473 kts 142°
2026-05-07 11:51 48.73542 16.23954 37000 ft 474 kts 147°
2026-05-07 11:51 48.68035 16.29414 37000 ft 473 kts 147°
2026-05-07 11:52 48.62511 16.34841 37000 ft 474 kts 147°
2026-05-07 11:52 48.56977 16.40264 36999 ft 475 kts 147°
2026-05-07 11:53 48.51441 16.45683 37000 ft 473 kts 147°
2026-05-07 11:53 48.45909 16.51085 37000 ft 474 kts 147°
2026-05-07 11:54 48.40376 16.56475 37000 ft 474 kts 147°
2026-05-07 11:54 48.34843 16.61852 37000 ft 473 kts 147°
2026-05-07 11:55 48.29306 16.67220 37000 ft 473 kts 147°
2026-05-07 11:55 48.23776 16.72567 37000 ft 473 kts 147°
2026-05-07 11:56 48.18238 16.77908 37000 ft 473 kts 147°
2026-05-07 11:56 48.12702 16.83233 37000 ft 473 kts 147°
2026-05-07 11:57 48.07158 16.88553 37001 ft 473 kts 148°
2026-05-07 11:57 48.01615 16.93857 37000 ft 473 kts 148°
2026-05-07 11:58 47.96068 16.99151 37000 ft 473 kts 148°
2026-05-07 11:58 47.90521 17.04432 37000 ft 473 kts 148°
2026-05-07 11:59 47.84990 17.09737 36999 ft 473 kts 145°
2026-05-07 11:59 47.80033 17.16141 37001 ft 473 kts 132°
2026-05-07 12:00 47.75687 17.23412 37000 ft 473 kts 131°
2026-05-07 12:00 47.71317 17.30725 37000 ft 473 kts 132°
2026-05-07 12:01 47.66905 17.37975 37000 ft 473 kts 132°
2026-05-07 12:01 47.62475 17.45192 37000 ft 473 kts 132°
2026-05-07 12:02 47.58037 17.52397 37000 ft 473 kts 132°
2026-05-07 12:02 47.54346 17.58374 37000 ft 473 kts 133°
2026-05-07 12:03 47.49896 17.65565 37001 ft 474 kts 133°
2026-05-07 12:03 47.45445 17.72740 36999 ft 473 kts 133°
2026-05-07 12:04 47.40984 17.79911 37000 ft 473 kts 133°
2026-05-07 12:04 47.36519 17.87070 37000 ft 474 kts 133°
2026-05-07 12:05 47.32046 17.94219 37000 ft 474 kts 133°
2026-05-07 12:05 47.27561 18.01369 37001 ft 474 kts 133°
2026-05-07 12:06 47.23071 18.08510 37000 ft 476 kts 133°
2026-05-07 12:06 47.18585 18.15624 37000 ft 473 kts 133°
2026-05-07 12:07 47.14135 18.22662 37000 ft 473 kts 133°
2026-05-07 12:07 47.09652 18.29736 36999 ft 474 kts 133°
2026-05-07 12:08 47.05155 18.36811 37000 ft 473 kts 133°
2026-05-07 12:08 47.00659 18.43866 37000 ft 473 kts 133°
2026-05-07 12:09 46.96163 18.50903 37000 ft 473 kts 133°
2026-05-07 12:09 46.91663 18.57928 37000 ft 473 kts 133°
2026-05-07 12:10 46.87161 18.64937 37000 ft 473 kts 133°
2026-05-07 12:10 46.82649 18.71941 37000 ft 473 kts 133°
2026-05-07 12:11 46.78131 18.78936 37000 ft 473 kts 133°
2026-05-07 12:11 46.73606 18.85923 37000 ft 473 kts 134°
2026-05-07 12:12 46.69110 18.92848 37000 ft 473 kts 134°
2026-05-07 12:12 46.64583 18.99803 37000 ft 473 kts 134°
2026-05-07 12:13 46.60054 19.06742 37000 ft 473 kts 134°
2026-05-07 12:13 46.55517 19.13676 37000 ft 473 kts 134°
2026-05-07 12:14 46.50972 19.20605 37000 ft 473 kts 134°
2026-05-07 12:14 46.46428 19.27513 37000 ft 473 kts 134°
2026-05-07 12:15 46.41882 19.34407 37000 ft 473 kts 134°
2026-05-07 12:15 46.37357 19.41252 37000 ft 473 kts 134°
2026-05-07 12:16 46.32795 19.48135 37000 ft 473 kts 134°
2026-05-07 12:16 46.28232 19.55002 37000 ft 473 kts 134°
2026-05-07 12:17 46.23671 19.61850 36999 ft 473 kts 134°
2026-05-07 12:17 46.19052 19.68627 37001 ft 473 kts 138°
2026-05-07 12:18 46.13831 19.74392 36999 ft 473 kts 147°
2026-05-07 12:18 46.08350 19.79636 37000 ft 473 kts 147°
2026-05-07 12:19 46.02893 19.84924 37000 ft 473 kts 146°
2026-05-07 12:19 45.97461 19.90239 37000 ft 473 kts 146°
2026-05-07 12:20 45.92058 19.95532 37000 ft 473 kts 146°
2026-05-07 12:20 45.86623 20.00846 37000 ft 473 kts 146°
2026-05-07 12:21 45.81189 20.06145 37000 ft 472 kts 146°
2026-05-07 12:21 45.75745 20.11438 36999 ft 472 kts 146°
2026-05-07 12:22 45.70308 20.16712 37000 ft 472 kts 146°
2026-05-07 12:22 45.64843 20.22000 37000 ft 476 kts 146°
2026-05-07 12:23 45.59324 20.27324 37001 ft 481 kts 146°
2026-05-07 12:23 45.53758 20.32683 37000 ft 483 kts 146°
2026-05-07 12:24 45.48172 20.38046 37000 ft 485 kts 146°
2026-05-07 12:24 45.42609 20.43374 37000 ft 485 kts 146°
2026-05-07 12:25 45.36997 20.48736 37000 ft 486 kts 146°
2026-05-07 12:25 45.31375 20.54094 37000 ft 486 kts 146°
2026-05-07 12:26 45.25756 20.59435 37000 ft 486 kts 146°
2026-05-07 12:26 45.20132 20.64768 37000 ft 486 kts 146°
2026-05-07 12:27 45.14500 20.70095 37000 ft 486 kts 147°
2026-05-07 12:27 45.08868 20.75410 37000 ft 487 kts 147°
2026-05-07 12:28 45.03230 20.80717 37000 ft 487 kts 147°
2026-05-07 12:28 44.97626 20.85980 37000 ft 487 kts 147°
2026-05-07 12:29 44.91977 20.91272 37000 ft 487 kts 147°
2026-05-07 12:29 44.86320 20.96558 37000 ft 487 kts 147°
2026-05-07 12:30 44.80676 21.01820 37000 ft 487 kts 147°
2026-05-07 12:30 44.75028 21.07073 37000 ft 487 kts 147°
2026-05-07 12:31 44.69378 21.12317 37000 ft 486 kts 147°
2026-05-07 12:31 44.63718 21.17557 37000 ft 486 kts 147°
2026-05-07 12:32 44.58056 21.22785 37000 ft 487 kts 147°
2026-05-07 12:32 44.52398 21.27998 37000 ft 487 kts 147°
2026-05-07 12:33 44.43944 21.35765 37000 ft 487 kts 147°
2026-05-07 12:33 44.38277 21.40955 37000 ft 487 kts 147°
2026-05-07 12:34 44.32612 21.46145 36999 ft 487 kts 146°
2026-05-07 12:34 44.27211 21.51842 36999 ft 487 kts 142°
2026-05-07 12:35 44.21886 21.57707 37001 ft 488 kts 142°
2026-05-07 12:35 44.16550 21.63563 37000 ft 489 kts 142°
2026-05-07 12:36 44.11184 21.69411 36999 ft 491 kts 142°
2026-05-07 12:36 44.05792 21.75265 36999 ft 492 kts 142°
2026-05-07 12:37 44.00387 21.81115 37000 ft 493 kts 142°
2026-05-07 12:37 43.94976 21.86956 37000 ft 492 kts 142°
2026-05-07 12:38 43.89567 21.92782 37000 ft 491 kts 142°
2026-05-07 12:38 43.84175 21.98576 37000 ft 490 kts 142°
2026-05-07 12:39 43.78816 22.04319 37000 ft 490 kts 142°
2026-05-07 12:39 43.73420 22.10089 36999 ft 490 kts 142°
2026-05-07 12:40 43.68022 22.15848 37000 ft 491 kts 142°
2026-05-07 12:40 43.62616 22.21601 37000 ft 490 kts 142°
2026-05-07 12:41 43.57214 22.27336 37000 ft 489 kts 142°
2026-05-07 12:41 43.51821 22.33048 37000 ft 489 kts 142°
2026-05-07 12:42 43.46284 22.38519 37003 ft 489 kts 148°
2026-05-07 12:42 43.40499 22.43450 36999 ft 489 kts 148°
2026-05-07 12:43 43.34689 22.48345 37000 ft 490 kts 149°
2026-05-07 12:43 43.28874 22.53251 37000 ft 491 kts 148°
2026-05-07 12:44 43.23064 22.58153 37000 ft 491 kts 148°
2026-05-07 12:44 43.17272 22.63031 37000 ft 491 kts 148°
2026-05-07 12:45 43.11454 22.67921 37000 ft 490 kts 149°
2026-05-07 12:45 43.05638 22.72798 37001 ft 490 kts 149°
2026-05-07 12:46 42.99822 22.77667 37000 ft 490 kts 148°
2026-05-07 12:46 42.94369 22.83236 37001 ft 491 kts 137°
2026-05-07 12:47 42.89401 22.89624 37000 ft 491 kts 136°
2026-05-07 12:47 42.84440 22.96042 37000 ft 491 kts 136°
2026-05-07 12:48 42.79453 23.02405 37000 ft 491 kts 137°
2026-05-07 12:48 42.75293 23.07668 37000 ft 492 kts 137°
2026-05-07 12:49 42.70277 23.13994 37000 ft 492 kts 137°
2026-05-07 12:49 42.65262 23.20304 37000 ft 492 kts 137°
2026-05-07 12:50 42.60223 23.26632 37000 ft 494 kts 137°
2026-05-07 12:50 42.55167 23.32968 36999 ft 496 kts 137°
2026-05-07 12:51 42.50126 23.39271 37001 ft 495 kts 137°
2026-05-07 12:51 42.45054 23.45600 37000 ft 495 kts 137°
2026-05-07 12:52 42.39984 23.51911 37000 ft 495 kts 137°
2026-05-07 12:52 42.34918 23.58201 37000 ft 494 kts 137°
2026-05-07 12:53 42.29848 23.64481 37000 ft 494 kts 137°
2026-05-07 12:53 42.24779 23.70748 36999 ft 495 kts 137°
2026-05-07 12:54 42.19690 23.77026 37000 ft 496 kts 137°
2026-05-07 12:54 42.14590 23.83303 37000 ft 497 kts 137°
2026-05-07 12:55 42.09470 23.89589 37000 ft 497 kts 138°
2026-05-07 12:55 42.04354 23.95857 37000 ft 496 kts 138°
2026-05-07 12:56 41.99262 24.02083 37000 ft 494 kts 138°
2026-05-07 12:56 41.94146 24.08260 37000 ft 495 kts 138°
2026-05-07 12:57 41.89001 24.14424 37000 ft 496 kts 138°
2026-05-07 12:57 41.83874 24.20560 37000 ft 497 kts 138°
2026-05-07 12:58 41.78710 24.26731 37002 ft 497 kts 138°
2026-05-07 12:58 41.73546 24.32892 36999 ft 496 kts 139°
2026-05-07 12:59 41.68388 24.39029 36999 ft 496 kts 139°
2026-05-07 12:59 41.63233 24.45151 37000 ft 496 kts 139°
2026-05-07 13:00 41.58063 24.51277 36999 ft 497 kts 139°
2026-05-07 13:00 41.52885 24.57399 37001 ft 497 kts 139°
2026-05-07 13:01 41.47707 24.63507 36999 ft 496 kts 139°
2026-05-07 13:01 41.42619 24.69495 37000 ft 496 kts 139°
2026-05-07 13:02 41.37482 24.75871 37000 ft 497 kts 135°
2026-05-07 13:02 41.32588 24.82368 37000 ft 497 kts 135°
2026-05-07 13:03 41.27686 24.88836 37001 ft 494 kts 135°
2026-05-07 13:03 41.22823 24.95185 36999 ft 492 kts 135°
2026-05-07 13:04 41.17930 25.01541 36999 ft 492 kts 136°
2026-05-07 13:04 41.13035 25.07881 37000 ft 490 kts 136°
2026-05-07 13:05 41.08192 25.14139 37000 ft 488 kts 136°
2026-05-07 13:05 41.03332 25.20407 37000 ft 487 kts 136°
2026-05-07 13:06 40.98470 25.26664 37000 ft 487 kts 136°
2026-05-07 13:06 40.93607 25.32908 37000 ft 487 kts 136°
2026-05-07 13:07 40.88742 25.39141 37000 ft 487 kts 136°
2026-05-07 13:07 40.83875 25.45363 37000 ft 486 kts 136°
2026-05-07 13:08 40.79037 25.51534 37000 ft 486 kts 136°
2026-05-07 13:08 40.74168 25.57732 37000 ft 486 kts 136°
2026-05-07 13:09 40.69294 25.63923 37000 ft 486 kts 136°
2026-05-07 13:09 40.64419 25.70101 37000 ft 486 kts 136°
2026-05-07 13:10 40.59537 25.76275 37000 ft 486 kts 136°
2026-05-07 13:10 40.54723 25.82351 36999 ft 486 kts 136°
2026-05-07 13:11 40.49852 25.88519 36998 ft 486 kts 134°
2026-05-07 13:11 40.45350 25.95153 37000 ft 486 kts 131°
2026-05-07 13:12 40.40948 26.01820 37000 ft 486 kts 131°
2026-05-07 13:12 40.36494 26.08500 37000 ft 486 kts 131°
2026-05-07 13:13 40.32022 26.15156 37000 ft 486 kts 131°
2026-05-07 13:13 40.27544 26.21801 37000 ft 486 kts 131°
2026-05-07 13:14 40.23061 26.28440 37000 ft 487 kts 131°
2026-05-07 13:14 40.18574 26.35072 37000 ft 487 kts 131°
2026-05-07 13:15 40.14084 26.41695 37001 ft 487 kts 131°
2026-05-07 13:15 40.09347 26.48019 37000 ft 487 kts 135°
2026-05-07 13:16 40.04548 26.54191 37000 ft 488 kts 136°
2026-05-07 13:16 39.99698 26.60398 37000 ft 488 kts 136°
2026-05-07 13:17 39.94841 26.66606 37000 ft 489 kts 136°
2026-05-07 13:17 39.89983 26.72807 37000 ft 489 kts 136°
2026-05-07 13:18 39.85121 26.79001 37000 ft 489 kts 136°
2026-05-07 13:18 39.80258 26.85185 37000 ft 489 kts 136°
2026-05-07 13:19 39.75376 26.91368 36999 ft 491 kts 136°
2026-05-07 13:19 39.70408 26.97484 37001 ft 492 kts 137°
2026-05-07 13:20 39.65423 27.03567 37001 ft 491 kts 137°
2026-05-07 13:20 39.60495 27.09584 37000 ft 489 kts 137°
2026-05-07 13:21 39.55544 27.15629 37000 ft 488 kts 137°
2026-05-07 13:21 39.50604 27.21664 36998 ft 489 kts 136°
2026-05-07 13:22 39.46089 27.28255 37000 ft 490 kts 130°
2026-05-07 13:22 39.41758 27.35060 37000 ft 490 kts 129°
2026-05-07 13:23 39.37424 27.41878 37000 ft 491 kts 129°
2026-05-07 13:23 39.33080 27.48672 37000 ft 491 kts 129°
2026-05-07 13:24 39.28728 27.55451 37000 ft 490 kts 130°
2026-05-07 13:24 39.24373 27.62219 37000 ft 489 kts 130°
2026-05-07 13:25 39.20022 27.68964 37000 ft 489 kts 130°
2026-05-07 13:25 39.15664 27.75705 37000 ft 489 kts 130°
2026-05-07 13:26 39.11309 27.82427 37000 ft 489 kts 130°
2026-05-07 13:26 39.06978 27.89098 37001 ft 489 kts 130°
2026-05-07 13:27 39.02638 27.95768 36999 ft 489 kts 130°
2026-05-07 13:27 38.98237 28.02519 37001 ft 491 kts 130°
2026-05-07 13:28 38.93845 28.09241 37000 ft 491 kts 130°
2026-05-07 13:28 38.89508 28.15865 36999 ft 475 kts 130°
2026-05-07 13:29 38.85246 28.22363 37000 ft 477 kts 130°
2026-05-07 13:29 38.80980 28.28851 37000 ft 475 kts 130°
2026-05-07 13:30 38.76704 28.35343 37000 ft 476 kts 130°
2026-05-07 13:30 38.72440 28.41802 37000 ft 474 kts 130°
2026-05-07 13:31 38.68175 28.48249 37000 ft 475 kts 130°
2026-05-07 13:31 38.63884 28.54724 37000 ft 477 kts 130°
2026-05-07 13:32 38.59563 28.61156 37000 ft 477 kts 133°
2026-05-07 13:32 38.54583 28.66745 37001 ft 476 kts 145°
2026-05-07 13:33 38.49157 28.71500 37000 ft 476 kts 146°
2026-05-07 13:33 38.43693 28.76295 37000 ft 478 kts 145°
2026-05-07 13:34 38.35510 28.83578 37000 ft 476 kts 145°
2026-05-07 13:35 38.30064 28.88434 37000 ft 479 kts 145°
2026-05-07 13:35 38.24605 28.93291 37000 ft 478 kts 145°
2026-05-07 13:36 38.19137 28.98144 37000 ft 478 kts 145°
2026-05-07 13:36 38.14606 29.02158 37000 ft 478 kts 145°
2026-05-07 13:37 38.09176 29.06961 37001 ft 475 kts 145°
2026-05-07 13:37 38.03706 29.11789 37000 ft 480 kts 145°
2026-05-07 13:38 37.98227 29.16617 37000 ft 479 kts 145°
2026-05-07 13:38 37.92734 29.21448 37000 ft 478 kts 145°
2026-05-07 13:39 37.87287 29.26229 37000 ft 476 kts 145°
2026-05-07 13:39 37.81845 29.30999 37000 ft 475 kts 145°
2026-05-07 13:40 37.76449 29.35721 37000 ft 476 kts 145°
2026-05-07 13:40 37.70964 29.40512 37000 ft 480 kts 145°
2026-05-07 13:41 37.65464 29.45308 37000 ft 481 kts 146°
2026-05-07 13:41 37.59935 29.50120 37000 ft 483 kts 146°
2026-05-07 13:42 37.54389 29.54937 37000 ft 481 kts 146°
2026-05-07 13:42 37.48891 29.59704 37001 ft 480 kts 146°
2026-05-07 13:43 37.43426 29.64585 36998 ft 485 kts 139°
2026-05-07 13:43 37.41083 29.67636 37001 ft 485 kts 128°
2026-05-07 13:43 37.39259 29.71186 37001 ft 484 kts 117°
2026-05-07 13:43 37.38022 29.75111 37001 ft 484 kts 105°
2026-05-07 13:44 37.37423 29.79260 37000 ft 481 kts 94°
2026-05-07 13:44 37.37492 29.83452 37001 ft 481 kts 82°
2026-05-07 13:44 37.38165 29.87560 37000 ft 480 kts 75°
2026-05-07 13:45 37.39457 29.95779 37001 ft 480 kts 88°
2026-05-07 13:45 37.39274 29.99966 37001 ft 480 kts 99°
2026-05-07 13:45 37.38445 30.04030 36996 ft 481 kts 110°
2026-05-07 13:45 37.37013 30.07817 36818 ft 478 kts 121°
2026-05-07 13:46 37.35030 30.11162 36512 ft 477 kts 133°
2026-05-07 13:46 37.32557 30.13931 36251 ft 478 kts 145°
2026-05-07 13:46 37.29678 30.16024 36016 ft 479 kts 156°
2026-05-07 13:46 37.26551 30.17337 35791 ft 481 kts 168°
2026-05-07 13:47 37.23229 30.17847 35543 ft 482 kts 180°
2026-05-07 13:47 37.19901 30.17509 35295 ft 480 kts 191°
2026-05-07 13:47 37.16635 30.16602 35040 ft 480 kts 189°
2026-05-07 13:47 37.13302 30.16292 34792 ft 481 kts 179°
2026-05-07 13:48 37.10006 30.16787 34663 ft 475 kts 167°
2026-05-07 13:48 37.06900 30.18060 34580 ft 464 kts 156°
2026-05-07 13:48 37.04134 30.20032 34466 ft 453 kts 144°
2026-05-07 13:48 37.01808 30.22617 34349 ft 442 kts 131°
2026-05-07 13:49 37.00046 30.25690 34241 ft 430 kts 118°
2026-05-07 13:49 36.98929 30.29100 34014 ft 421 kts 104°
2026-05-07 13:49 36.98506 30.32706 33563 ft 419 kts 90°
2026-05-07 13:49 36.98819 30.36307 33051 ft 418 kts 75°
2026-05-07 13:50 36.99590 30.38989 32794 ft 413 kts 63°
2026-05-07 13:50 37.01205 30.42048 32407 ft 408 kts 47°
2026-05-07 13:50 37.03339 30.44353 32020 ft 404 kts 31°
2026-05-07 13:50 37.05823 30.45809 31605 ft 400 kts 15°
2026-05-07 13:51 37.08551 30.46348 31189 ft 396 kts 359°
2026-05-07 13:51 37.11246 30.45874 30934 ft 387 kts 341°
2026-05-07 13:51 37.13632 30.44454 30836 ft 374 kts 325°
2026-05-07 13:51 37.15702 30.42548 30549 ft 367 kts 321°
2026-05-07 13:52 37.17795 30.40702 30015 ft 368 kts 332°
2026-05-07 13:52 37.20163 30.39584 29710 ft 362 kts 347°
2026-05-07 13:52 37.22652 30.39207 29333 ft 359 kts 358°
2026-05-07 13:52 37.25143 30.39253 28923 ft 357 kts
2026-05-07 13:53 37.27608 30.39509 28508 ft 354 kts
2026-05-07 13:53 37.30051 30.39848 28125 ft 351 kts
2026-05-07 13:53 37.32465 30.40205 27753 ft 348 kts
2026-05-07 13:53 37.34869 30.40557 27316 ft 347 kts
2026-05-07 13:54 37.37260 30.40896 26925 ft 344 kts
2026-05-07 13:54 37.39631 30.41224 26558 ft 341 kts
2026-05-07 13:54 37.41979 30.41543 26149 ft 339 kts
2026-05-07 13:54 37.44289 30.41855 25748 ft 337 kts
2026-05-07 13:55 37.46617 30.42168 25284 ft 337 kts
2026-05-07 13:55 37.48940 30.42480 24900 ft 334 kts
2026-05-07 13:55 37.51246 30.42790 24503 ft 332 kts
2026-05-07 13:55 37.53527 30.43096 24139 ft 328 kts
2026-05-07 13:56 37.55774 30.43544 23659 ft 328 kts 18°
2026-05-07 13:56 37.57770 30.44875 23252 ft 325 kts 39°
2026-05-07 13:56 37.59224 30.47034 22784 ft 325 kts 62°
2026-05-07 13:56 37.59912 30.49725 22343 ft 324 kts 85°
2026-05-07 13:57 37.59735 30.52516 21964 ft 319 kts 107°
2026-05-07 13:57 37.58735 30.54977 21530 ft 317 kts 130°
2026-05-07 13:57 37.57047 30.56725 21096 ft 314 kts 154°
2026-05-07 13:57 37.54962 30.57461 20645 ft 312 kts 178°
2026-05-07 13:58 37.52833 30.57093 20207 ft 309 kts 199°
2026-05-07 13:58 37.50824 30.56185 19822 ft 305 kts 201°
2026-05-07 13:58 37.48812 30.55348 19382 ft 304 kts 196°
2026-05-07 13:58 37.46761 30.54746 18947 ft 302 kts 191°
2026-05-07 13:59 37.44695 30.54335 18544 ft 299 kts 188°
2026-05-07 13:59 37.42632 30.54027 18096 ft 298 kts 186°
2026-05-07 13:59 37.40576 30.53761 17693 ft 295 kts 186°
2026-05-07 13:59 37.38565 30.53510 17262 ft 293 kts 186°
2026-05-07 14:00 37.36516 30.53250 16824 ft 291 kts 186°
2026-05-07 14:00 37.34531 30.52991 16384 ft 289 kts 186°
2026-05-07 14:00 37.32536 30.52725 15932 ft 287 kts 186°
2026-05-07 14:00 37.30555 30.52458 15471 ft 286 kts 186°
2026-05-07 14:01 37.28582 30.52191 15000 ft 285 kts 186°
2026-05-07 14:01 37.26618 30.51922 14560 ft 282 kts 186°
2026-05-07 14:01 37.24675 30.51654 14113 ft 280 kts 186°
2026-05-07 14:01 37.22750 30.51388 13658 ft 277 kts 186°
2026-05-07 14:02 37.20836 30.51125 13196 ft 275 kts 186°
2026-05-07 14:02 37.18939 30.50864 12719 ft 273 kts 186°
2026-05-07 14:02 37.17054 30.50605 12220 ft 272 kts 186°
2026-05-07 14:02 37.15175 30.50347 11767 ft 270 kts 186°
2026-05-07 14:03 37.13325 30.50091 11380 ft 264 kts 186°
2026-05-07 14:03 37.11528 30.49950 11056 ft 255 kts 173°
2026-05-07 14:03 37.09899 30.50681 10762 ft 253 kts 144°
2026-05-07 14:03 37.08687 30.52375 10454 ft 270 kts 117°
2026-05-07 14:04 37.08189 30.54639 10129 ft 271 kts 96°
2026-05-07 14:04 37.08050 30.56962 9847 ft 263 kts 92°
2026-05-07 14:04 37.07955 30.59232 9483 ft 257 kts 93°
2026-05-07 14:04 37.07971 30.61423 9156 ft 248 kts 78°
2026-05-07 14:05 37.08682 30.63321 8859 ft 238 kts 49°
2026-05-07 14:05 37.09997 30.64475 8561 ft 229 kts 18°
2026-05-07 14:05 37.11544 30.64755 8297 ft 229 kts
2026-05-07 14:05 37.13258 30.64846 7998 ft 260 kts
2026-05-07 14:06 37.15079 30.64997 7870 ft 259 kts
2026-05-07 14:06 37.16845 30.65212 7680 ft 251 kts
2026-05-07 14:06 37.18572 30.65460 7214 ft 249 kts
2026-05-07 14:06 37.20202 30.66022 6959 ft 240 kts 25°
2026-05-07 14:07 37.21623 30.67197 6895 ft 246 kts 39°
2026-05-07 14:07 37.22930 30.68538 6897 ft 246 kts 38°
2026-05-07 14:07 37.24250 30.69910 6885 ft 246 kts 43°
2026-05-07 14:07 37.25309 30.71584 6590 ft 247 kts 61°
2026-05-07 14:08 37.26012 30.73553 6144 ft 247 kts 68°
2026-05-07 14:08 37.26644 30.75511 5939 ft 240 kts 68°
2026-05-07 14:08 37.27291 30.77472 5898 ft 243 kts 66°
2026-05-07 14:08 37.27839 30.79458 5699 ft 242 kts 80°
2026-05-07 14:09 37.27750 30.81562 5272 ft 242 kts 104°
2026-05-07 14:09 37.26898 30.83450 5107 ft 260 kts 135°
2026-05-07 14:09 37.25396 30.84639 5075 ft 254 kts 162°
2026-05-07 14:09 37.23702 30.84883 4974 ft 239 kts 181°
2026-05-07 14:10 37.22068 30.85017 4796 ft 234 kts 176°
2026-05-07 14:10 37.20424 30.85087 4687 ft 237 kts 182°
2026-05-07 14:10 37.18784 30.84977 4590 ft 236 kts 186°
2026-05-07 14:10 37.17177 30.84766 4489 ft 226 kts 187°
2026-05-07 14:11 37.15660 30.84553 4361 ft 213 kts 187°
2026-05-07 14:11 37.14228 30.84355 4266 ft 202 kts 188°
2026-05-07 14:11 37.12871 30.84161 4172 ft 191 kts 187°
2026-05-07 14:11 37.11588 30.83985 4040 ft 183 kts 187°
2026-05-07 14:12 37.10336 30.83812 3839 ft 178 kts 187°
2026-05-07 14:12 37.09115 30.83642 3637 ft 175 kts 187°
2026-05-07 14:12 37.07910 30.83473 3429 ft 173 kts 188°
2026-05-07 14:12 37.06723 30.83307 3202 ft 170 kts 187°
2026-05-07 14:13 37.05553 30.83146 2993 ft 168 kts 188°
2026-05-07 14:13 37.04424 30.82987 2769 ft 159 kts 188°
2026-05-07 14:13 37.03360 30.82837 2560 ft 148 kts 187°
2026-05-07 14:13 37.02347 30.82699 2400 ft 151 kts 188°
2026-05-07 14:14 37.01315 30.82555 2187 ft 144 kts 187°
2026-05-07 14:14 37.00317 30.82420 2041 ft 147 kts 187°
2026-05-07 14:14 36.99308 30.82291 1846 ft 148 kts 187°
2026-05-07 14:14 36.98294 30.82168 1538 ft 145 kts 186°
2026-05-07 14:15 36.97298 30.82068 1286 ft 145 kts 183°
2026-05-07 14:15 36.96297 30.81966 1214 ft 146 kts 187°
2026-05-07 14:15 36.95314 30.81806 1001 ft 142 kts 189°
2026-05-07 14:15 36.94320 30.81649 831 ft 142 kts 189°
2026-05-07 14:16 36.93343 30.81464 629 ft 144 kts 189°
2026-05-07 14:16 36.92365 30.81326 403 ft 136 kts 187°
2026-05-07 14:16 36.91382 30.81178 283 ft 146 kts 187°
2026-05-07 14:16 36.90417 30.81048 189 ft 131 kts 186°
2026-05-07 14:17 36.89612 30.80926 199 ft 99 kts 187°
2026-05-07 14:17 36.89071 30.80854 196 ft 63 kts 186°
2026-05-07 14:17 36.88763 30.80806 194 ft 39 kts 194°
2026-05-07 14:17 36.88598 30.80664 196 ft 13 kts 218°
2026-05-07 14:18 36.88586 30.80652 201 ft 0 kts 218°
2026-05-07 14:18 36.88577 30.80643 196 ft 6 kts 218°
2026-05-07 14:18 36.88563 30.80587 183 ft 8 kts 284°
2026-05-07 14:19 36.88611 30.80559 183 ft 8 kts 352°
2026-05-07 14:19 36.88673 30.80566 183 ft 11 kts
2026-05-07 14:19 36.88801 30.80588 183 ft 22 kts
2026-05-07 14:19 36.88958 30.80608 182 ft 23 kts
2026-05-07 14:20 36.89091 30.80591 182 ft 15 kts
2026-05-07 14:20 36.89162 30.80604 182 ft 16 kts 11°
2026-05-07 14:20 36.89308 30.80647 182 ft 16 kts 358°
2026-05-07 14:20 36.89421 30.80670 182 ft 17 kts
2026-05-07 14:21 36.89539 30.80670 182 ft 16 kts 326°
2026-05-07 14:21 36.89600 30.80576 182 ft 12 kts 348°
2026-05-07 14:21 36.89692 30.80583 182 ft 14 kts
2026-05-07 14:21 36.89769 30.80565 182 ft 10 kts 303°
2026-05-07 14:22 36.89786 30.80498 182 ft 0 kts 274°
2026-05-07 14:22 36.89787 30.80496 182 ft 0 kts 277°